Regional Weather Roundup
Issued by NWS Sterling, VA

Home | Current Version | Previous Version | Text Only | Print | Product List | Glossary Off
Versions: 1 2 3 4 5 6 7 8 9 10 11 12 13 14 15 16 17 18 19 20 21 22 23 24 25 26 27 28 29 30 31 32 33 34 35 36 37 38 39 40 41 42 43 44 45 46 47 48 49 50

000
ASUS41 KLWX 301210
RWRLWX

REGIONAL WEATHER ROUNDUP
NATIONAL WEATHER SERVICE BALTIMORE MD/WASHINGTON DC
800 AM EDT SAT MAY 30 2015

Note: "FAIR" indicates few or no clouds below 12,000 feet
with no significant weather and/or obstructions to visibility.
 TC=TEMPERATURE CELSIUS

 * =Non NWS site. Station does not report precipitation (e.g. rain,
    snow, etc.), thunder, or fog.

DCZ001-MDZ009-015-VAZ040>042-051-053>054-301300-
WASHINGTON METRO

CITY           SKY/WX    TMP DP  RH WIND       PRES   REMARKS
WASHINGTON NAT PTSUNNY   75  68  78 S9        30.20R
DULLES         PTSUNNY   71  67  87 S7        30.19S
ANDREWS AFB    SUNNY     73  68  85 S10       30.20R
FT BELVOIR     MOSUNNY   74  68  81 S7        30.20R
QUANTICO       MOSUNNY   72  67  84 SW12      30.21S
COLLEGE PARK*  MOSUNNY   73  68  83 S3        30.20S
LEESBURG*      CLOUDY    70  70 100 S7        30.20S
MANASSAS*      PTSUNNY   70  70 100 CALM      30.20R
GAITHERSBURG*  PTSUNNY   72  66  83 S5        30.24S

$$

MDZ006>007-011-014-301300-
BALTIMORE METRO

CITY           SKY/WX    TMP DP  RH WIND       PRES   REMARKS
BWI AIRPORT    PTSUNNY   73  67  81 S6        30.19S
MD SCIENCE CTR   N/A     73  67  81 MISG      30.20R
MARTIN STATE   PTSUNNY   73  72  94 S8        30.21R
ANNAPOLIS      MOSUNNY   73  67  81 S7        30.20S
FORT MEADE*    MOSUNNY   72  66  83 S5        30.22S

$$

MDZ012-015-019>023-301300-
MARYLAND EASTERN SHORE

CITY           SKY/WX    TMP DP  RH WIND       PRES   REMARKS
OCEAN CITY     SUNNY     71  68  90 S3        30.25R
SALISBURY      SUNNY     70  68  93 S7        30.24R
BAY BRIDGE AP*   N/A    N/A N/A N/A S8        30.21S
CAMBRIDGE*     CLOUDY    73  70  88 S6        30.23R
EASTON*        MOSUNNY   73  73 100 S7        30.26R

$$

MDZ017>025-301300-
SOUTHERN MARYLAND

CITY           SKY/WX    TMP DP  RH WIND       PRES   REMARKS
PATUXENT RIVER MOSUNNY   73  68  84 SW6       30.22R
ST INIGOES       N/A     73  69  87 S8        30.22R
LEONARDTOWN*   MOSUNNY   72  66  83 SW8       30.24R

$$

MDZ003>005-301300-
NORTH CENTRAL MARYLAND

CITY           SKY/WX    TMP DP  RH WIND       PRES   REMARKS
FREDERICK*     CLOUDY    72  70  94 SW7       30.21S
HAGERSTOWN APT SUNNY     73  65  75 S7        30.18R
WESTMINSTER*   PTSUNNY   72  66  83 S7        30.20S

$$

MDZ501>502-301300-
WESTERN MARYLAND

CITY           SKY/WX    TMP DP  RH WIND       PRES   REMARKS
OAKLAND*       CLOUDY    63 N/A N/A S7        30.24S
CUMBERLAND*    CLOUDY    66  66 100 CALM      30.21S VSB 1/4

$$

VAZ025>031-301300-
SHENANDOAH VALLEY

CITY           SKY/WX    TMP DP  RH WIND       PRES   REMARKS
WINCHESTER*    PTSUNNY   70  68  94 S5        30.18S
FRONT ROYAL*   CLOUDY    66  64  94 S3        30.18R
LURAY*         LGT RAIN  68  68 100 CALM      30.20S
NEW MARKET*    CLOUDY    67  66  97 CALM      30.18S
STAUNTON*      CLOUDY    73  67  82 CALM      30.23S
WAYNESBORO*    FAIR      68  63  84 CALM      30.22S

$$

WVZ021-048>050-054>055-301300-
EASTERN WEST VIRGINIA PANHANDLE

CITY           SKY/WX    TMP DP  RH WIND       PRES   REMARKS
MARTINSBURG    MOSUNNY   70  66  87 S3        30.18R
PETERSBURG*    PTSUNNY   65  63  93 CALM      30.19S FOG

$$

VAZ036>039-050-301300-
CENTRAL FOOTHILLS

CITY           SKY/WX    TMP DP  RH WIND       PRES   REMARKS
CHARLOTTESVILL CLOUDY    69  66  90 S7        30.20S FOG
CULPEPER*      MOSUNNY   68  67  98 S3        30.20F
ORANGE*        MOSUNNY   70  68  94 S5        30.22S
GORDONSVILLE*  FAIR      69  66  91 SW6       30.20S
WARRENTON*     FAIR      71  69  92 SW6       30.20S

$$

VAZ055>057-301300-
NORTH AND CENTRAL PIEDMONT

CITY           SKY/WX    TMP DP  RH WIND       PRES   REMARKS
FREDERICKSBRG* SUNNY     72  72  99 S5        30.20S
STAFFORD*      MOSUNNY   69  67  94 S5        30.25R

$$

NCZ024-NYZ072-PAZ021-071-VAZ022-071-301300-
OTHER REGIONAL OBSERVATIONS

CITY           SKY/WX    TMP DP  RH WIND       PRES   REMARKS
NEW YORK CITY  SUNNY     71  64  78 VRB5      30.24R
PHILADELPHIA   CLOUDY    71  66  84 S9        30.21S
PITTSBURGH     PTSUNNY   71  63  75 S7        30.12S
ROANOKE        CLOUDY    66  65  96 SW3       30.25R
RICHMOND       MOSUNNY   72  68  87 S5        30.23R
RALEIGH        PTSUNNY   70  67  90 S3        30.24R

$$

ANZ530>537-301300-
MARINE OBSERVATIONS

STATION/POSITION TIME  TEMP    WIND        PRES
                       AIR SEA DIR/SP/G
                 (UTC) (F)     (DEG/KT/KT) (MB)
THOMAS PT LIGHT  1200   70 72  180/ 12/ 14 1023.4R
BALT KEY BRIDGE  1100   71     170/  7/  9 1022.1R
COVE POINT       1100   70     210/  7/ 10 1023.7R
LEWISETTA        1100   70 76              1023.0R
SOLOMONS ISLAND  1100      71                N/A
PINEY POINT      1100          190/  5/  7   N/A

$$



USA.gov is the U.S. government's official web portal to all federal, state and local government web resources and services.